05.03.2011  08:00:00 AM   1,6696233
05.03.2011  12:00:00 PM   1,7379693
05.03.2011  04:00:00 PM   1,8051032
05.03.2011  08:00:00 PM   1,8709657
09.03.2011  08:00:00 AM   2,8696546
09.03.2011  12:00:00 PM   2,8953942
09.03.2011  04:00:00 PM   2,9189144
09.03.2011  08:00:00 PM   2,9401963
10.03.2011  08:00:00 AM   2,9904547
10.03.2011  12:00:00 PM   3,0026365
10.03.2011  04:00:00 PM   3,0125173
10.03.2011  08:00:00 PM   3,0200910
11.03.2011  08:00:00 AM   3,0289407
11.03.2011  12:00:00 PM   3,0272681
11.03.2011  04:00:00 PM   3,0232905
11.03.2011  08:00:00 PM   3,0170147
14.03.2011  08:00:00 AM   2,6582286
14.03.2011  12:00:00 PM   2,6178221
14.03.2011  04:00:00 PM   2,5755483
14.03.2011  08:00:00 PM   2,5314492
15.03.2011  08:00:00 AM   2,3886468
15.03.2011  12:00:00 PM   2,3377008
15.03.2011  04:00:00 PM   2,2851642
16.03.2011  08:00:00 AM   2,0601570
16.03.2011  12:00:00 PM   2,0004624
16.03.2011  04:00:00 PM   1,9395038
16.03.2011  08:00:00 PM   1,8773397
17.03.2011  08:00:00 AM   1,6842126
17.03.2011  12:00:00 PM   1,6178293
17.03.2011  04:00:00 PM   1,5505462
17.03.2011  08:00:00 PM   1,4824265
18.03.2011  08:00:00 AM   1,2736912
18.03.2011  12:00:00 PM   1,2028706
18.03.2011  04:00:00 PM   1,1315381
18.03.2011  08:00:00 PM   1,0597597
21.03.2011  08:00:00 AM   -0,0255343
21.03.2011  12:00:00 PM   -0,0955205
21.03.2011  04:00:00 PM   -0,1648559
21.03.2011  08:00:00 PM   -0,2334814
22.03.2011  08:00:00 AM   -0,4345199
22.03.2011  12:00:00 PM   -0,4997330
22.03.2011  04:00:00 PM   -0,5639554
22.03.2011  08:00:00 PM   -0,6271347
23.03.2011  08:00:00 AM   -0,8099076
23.03.2011  12:00:00 PM   -0,8684152
23.03.2011  04:00:00 PM   -0,9256373
23.03.2011  08:00:00 PM   -0,9815299
24.03.2011  08:00:00 AM   -1,1408137
24.03.2011  12:00:00 PM   -1,1909799
24.03.2011  04:00:00 PM   -1,2396207
24.03.2011  08:00:00 PM   -1,2867022
25.03.2011  08:00:00 AM   -1,4182779
25.03.2011  12:00:00 PM   -1,4588184
25.03.2011  04:00:00 PM   -1,4976568
25.03.2011  08:00:00 PM   -1,5347704
28.03.2011  08:00:00 AM   -1,8726252
28.03.2011  12:00:00 PM   -1,8810839
28.03.2011  04:00:00 PM   -1,8877267
28.03.2011  08:00:00 PM   -1,8925656
29.03.2011  08:00:00 AM   -1,8964063
29.03.2011  12:00:00 PM   -1,8941863
29.03.2011  04:00:00 PM   -1,8902500
29.03.2011  08:00:00 PM   -1,8846202
30.03.2011  08:00:00 AM   -1,8578243
30.03.2011  12:00:00 PM   -1,8456834
30.03.2011  04:00:00 PM   -1,8319885
30.03.2011  08:00:00 PM   -1,8167723
31.03.2011  08:00:00 AM   -1,7623450
31.03.2011  12:00:00 PM   -1,7413997
31.03.2011  04:00:00 PM   -1,7191179
31.03.2011  08:00:00 PM   -1,6955406
01.04.2011  08:00:00 AM   -1,6174626
01.04.2011  12:00:00 PM   -1,5891358
01.04.2011  04:00:00 PM   -1,5597352
01.04.2011  08:00:00 PM   -1,5293081
04.04.2011  08:00:00 AM   -0,9840862
04.04.2011  12:00:00 PM   -0,9442047
04.04.2011  04:00:00 PM   -0,9041859
04.04.2011  08:00:00 PM   -0,8640836
05.04.2011  08:00:00 AM   -0,7438085
05.04.2011  12:00:00 PM   -0,7039033
05.04.2011  04:00:00 PM   -0,6641782
05.04.2011  08:00:00 PM   -0,6246845
06.04.2011  08:00:00 AM   -0,5080954
06.04.2011  12:00:00 PM   -0,4700273
06.04.2011  04:00:00 PM   -0,4324369
06.04.2011  08:00:00 PM   -0,3953709
07.04.2011  08:00:00 AM   -0,2877731
07.04.2011  12:00:00 PM   -0,2532530
07.04.2011  04:00:00 PM   -0,2194762
07.04.2011  08:00:00 PM   -0,1864829
08.04.2011  08:00:00 AM   -0,0925887
08.04.2011  12:00:00 PM   -0,0631075
08.04.2011  04:00:00 PM   -0,0345921
08.04.2011  08:00:00 PM   -0,0070748
11.04.2011  08:00:00 AM   0,2687580
11.04.2011  12:00:00 PM   0,2772134
11.04.2011  04:00:00 PM   0,2843708
11.04.2011  08:00:00 PM   0,2902281
12.04.2011  08:00:00 AM   0,3000067
12.04.2011  12:00:00 PM   0,3006799
12.04.2011  04:00:00 PM   0,3000700
12.04.2011  08:00:00 PM   0,2981859
13.04.2011  08:00:00 AM   0,2850011
13.04.2011  12:00:00 PM   0,2781419
13.04.2011  04:00:00 PM   0,2700779
13.04.2011  08:00:00 PM   0,2608283
14.04.2011  08:00:00 AM   0,2261795
14.04.2011  12:00:00 PM   0,2124092
14.04.2011  04:00:00 PM   0,1975720
14.04.2011  08:00:00 PM   0,1816964
15.04.2011  08:00:00 AM   0,1281435
15.04.2011  12:00:00 PM   0,1084257
15.04.2011  04:00:00 PM   0,0878321
15.04.2011  08:00:00 PM   0,0663991
18.04.2011  08:00:00 AM   -0,3278057
18.04.2011  12:00:00 PM   -0,3568896
18.04.2011  04:00:00 PM   -0,3860520
18.04.2011  08:00:00 PM   -0,4152429
19.04.2011  08:00:00 AM   -0,5024846
19.04.2011  12:00:00 PM   -0,5312870
19.04.2011  04:00:00 PM   -0,5598666
19.04.2011  08:00:00 PM   -0,5881730
20.04.2011  08:00:00 AM   -0,6709545
20.04.2011  12:00:00 PM   -0,6976708
20.04.2011  04:00:00 PM   -0,7238669
20.04.2011  08:00:00 PM   -0,7494945
21.04.2011  08:00:00 AM   -0,8224925
21.04.2011  12:00:00 PM   -0,8453756
21.04.2011  04:00:00 PM   -0,8674584
21.04.2011  08:00:00 PM   -0,8886967
22.04.2011  08:00:00 AM   -0,9469178
22.04.2011  12:00:00 PM   -0,9643560
22.04.2011  04:00:00 PM   -0,9807438
22.04.2011  08:00:00 PM   -0,9960430
25.04.2011  08:00:00 AM   -1,0731596
25.04.2011  12:00:00 PM   -1,0669943
25.04.2011  04:00:00 PM   -1,0593133
25.04.2011  08:00:00 PM   -1,0501064
26.04.2011  08:00:00 AM   -1,0132541
26.04.2011  12:00:00 PM   -0,9978768
26.04.2011  04:00:00 PM   -0,9809496
26.04.2011  08:00:00 PM   -0,9624732
27.04.2011  08:00:00 AM   -0,8977850
27.04.2011  12:00:00 PM   -0,8731573
27.04.2011  04:00:00 PM   -0,8470125
27.04.2011  08:00:00 PM   -0,8193628
28.04.2011  08:00:00 AM   -0,7275323
28.04.2011  12:00:00 PM   -0,6940204
28.04.2011  04:00:00 PM   -0,6590917
28.04.2011  08:00:00 PM   -0,6227692
29.04.2011  08:00:00 AM   -0,5056965
29.04.2011  12:00:00 PM   -0,4640651
29.04.2011  04:00:00 PM   -0,4211816
29.04.2011  08:00:00 PM   -0,3770795
03.05.2011  08:00:00 AM   0,7558510
03.05.2011  12:00:00 PM   0,8154612
03.05.2011  04:00:00 PM   0,8751601
03.05.2011  08:00:00 PM   0,9348880
04.05.2011  08:00:00 AM   1,1136429
04.05.2011  12:00:00 PM   1,1728824
04.05.2011  04:00:00 PM   1,2318475
04.05.2011  08:00:00 PM   1,2904769
05.05.2011  08:00:00 AM   1,4637399
05.05.2011  12:00:00 PM   1,5204158
05.05.2011  04:00:00 PM   1,5764514
05.05.2011  08:00:00 PM   1,6317865
06.05.2011  08:00:00 AM   1,7929923
06.05.2011  12:00:00 PM   1,8449316
06.05.2011  04:00:00 PM   1,8958763
06.05.2011  08:00:00 PM   1,9457695
10.05.2011  08:00:00 AM   2,6605712
10.05.2011  12:00:00 PM   2,6751178
10.05.2011  04:00:00 PM   2,6876326
10.05.2011  08:00:00 PM   2,6980920
11.05.2011  08:00:00 AM   2,7169339
11.05.2011  12:00:00 PM   2,7189773
11.05.2011  04:00:00 PM   2,7188779
11.05.2011  08:00:00 PM   2,7166242
12.05.2011  08:00:00 AM   2,6968543
12.05.2011  12:00:00 PM   2,6859106
12.05.2011  04:00:00 PM   2,6727865
12.05.2011  08:00:00 PM   2,6574832
13.05.2011  08:00:00 AM   2,5985407
13.05.2011  12:00:00 PM   2,5745737
13.05.2011  04:00:00 PM   2,5484648
13.05.2011  08:00:00 PM   2,5202276
16.05.2011  08:00:00 AM   1,8569089
16.05.2011  12:00:00 PM   1,7981459
16.05.2011  04:00:00 PM   1,7377928
16.05.2011  08:00:00 PM   1,6758974
17.05.2011  08:00:00 AM   1,4814598
17.05.2011  12:00:00 PM   1,4139048
17.05.2011  04:00:00 PM   1,3450694
17.05.2011  08:00:00 PM   1,2750103
18.05.2011  08:00:00 AM   1,0580733
18.05.2011  12:00:00 PM   0,9837081
18.05.2011  04:00:00 PM   0,9084193
18.05.2011  08:00:00 PM   0,8322700
19.05.2011  08:00:00 AM   0,5993039
19.05.2011  12:00:00 PM   0,5203613
19.05.2011  04:00:00 PM   0,4408861
19.05.2011  08:00:00 PM   0,3609459
20.05.2011  08:00:00 AM   0,1190185
20.05.2011  12:00:00 PM   0,0379032
20.05.2011  04:00:00 PM   -0,0433331
20.05.2011  08:00:00 PM   -0,1246207
23.05.2011  08:00:00 AM   -1,3030989
23.05.2011  12:00:00 PM   -1,3758822
23.05.2011  04:00:00 PM   -1,4475760
23.05.2011  08:00:00 PM   -1,5181195
24.05.2011  08:00:00 AM   -1,7222570
24.05.2011  12:00:00 PM   -1,7876141
24.05.2011  04:00:00 PM   -1,8515345
24.05.2011  08:00:00 PM   -1,9139648
25.05.2011  08:00:00 AM   -2,0918041
25.05.2011  12:00:00 PM   -2,1477703
25.05.2011  04:00:00 PM   -2,2020024
25.05.2011  08:00:00 PM   -2,2544562
26.05.2011  08:00:00 AM   -2,4007347
26.05.2011  12:00:00 PM   -2,4456709
26.05.2011  04:00:00 PM   -2,4886355
26.05.2011  08:00:00 PM   -2,5295955
27.05.2011  08:00:00 AM   -2,6401457
27.05.2011  12:00:00 PM   -2,6727951
27.05.2011  04:00:00 PM   -2,7033040
27.05.2011  08:00:00 PM   -2,7316512
30.05.2011  08:00:00 AM   -2,8895780
30.05.2011  12:00:00 PM   -2,8821976
30.05.2011  04:00:00 PM   -2,8726217
30.05.2011  08:00:00 PM   -2,8608673
31.05.2011  08:00:00 AM   -2,8127335
31.05.2011  12:00:00 PM   -2,7924756
31.05.2011  04:00:00 PM   -2,7701543
31.05.2011  08:00:00 PM   -2,7457985
01.06.2011  08:00:00 AM   -2,6608402
01.06.2011  12:00:00 PM   -2,6286716
01.06.2011  04:00:00 PM   -2,5946399
01.06.2011  08:00:00 PM   -2,5587846
02.06.2011  08:00:00 AM   -2,4406961
02.06.2011  12:00:00 PM   -2,3979730
02.06.2011  04:00:00 PM   -2,3536471
02.06.2011  08:00:00 PM   -2,3077669
03.06.2011  08:00:00 AM   -2,1613055
03.06.2011  12:00:00 PM   -2,1097190
03.06.2011  04:00:00 PM   -2,0568396
03.06.2011  08:00:00 PM   -2,0027229
06.06.2011  08:00:00 AM   -1,0827936
06.06.2011  12:00:00 PM   -1,0170542
06.06.2011  04:00:00 PM   -0,9511216
06.06.2011  08:00:00 PM   -0,8850591
07.06.2011  08:00:00 AM   -0,6867241
07.06.2011  12:00:00 PM   -0,6207721
07.06.2011  04:00:00 PM   -0,5550032
07.06.2011  08:00:00 PM   -0,4894789
08.06.2011  08:00:00 AM   -0,2949767
08.06.2011  12:00:00 PM   -0,2310306
08.06.2011  04:00:00 PM   -0,1676255
08.06.2011  08:00:00 PM   -0,1048183
09.06.2011  08:00:00 AM   0,0794624
09.06.2011  12:00:00 PM   0,1393296
09.06.2011  04:00:00 PM   0,1983299
09.06.2011  08:00:00 PM   0,2564130
10.06.2011  08:00:00 AM   0,4246751
10.06.2011  12:00:00 PM   0,4786121
10.06.2011  04:00:00 PM   0,5314000
10.06.2011  08:00:00 PM   0,5829969
14.06.2011  08:00:00 AM   1,3346197
14.06.2011  12:00:00 PM   1,3528095
14.06.2011  04:00:00 PM   1,3693221
14.06.2011  08:00:00 PM   1,3841591
15.06.2011  08:00:00 AM   1,4186590
15.06.2011  12:00:00 PM   1,4268457
15.06.2011  04:00:00 PM   1,4333924
16.06.2011  08:00:00 AM   1,4434593
16.06.2011  12:00:00 PM   1,4420318
16.06.2011  04:00:00 PM   1,4390670
16.06.2011  08:00:00 PM   1,4345880
17.06.2011  08:00:00 AM   1,4123223
17.06.2011  12:00:00 PM   1,4020506
17.06.2011  04:00:00 PM   1,3904045
17.06.2011  08:00:00 PM   1,3774163
20.06.2011  08:00:00 AM   1,0475151
20.06.2011  12:00:00 PM   1,0184682
20.06.2011  04:00:00 PM   0,9888059
20.06.2011  08:00:00 PM   0,9585781
21.06.2011  08:00:00 AM   0,8650078
21.06.2011  12:00:00 PM   0,8330255
21.06.2011  04:00:00 PM   0,8007327
21.06.2011  08:00:00 PM   0,7681810
22.06.2011  08:00:00 AM   0,6694888
22.06.2011  12:00:00 PM   0,6364177
22.06.2011  04:00:00 PM   0,6033451
22.06.2011  08:00:00 PM   0,5703222
23.06.2011  08:00:00 AM   0,4720561
23.06.2011  12:00:00 PM   0,4397344
23.06.2011  04:00:00 PM   0,4077113
23.06.2011  08:00:00 PM   0,3760349
24.06.2011  08:00:00 AM   0,2835576
24.06.2011  12:00:00 PM   0,2537356
24.06.2011  04:00:00 PM   0,2244900
24.06.2011  08:00:00 PM   0,1958641
27.06.2011  08:00:00 AM   -0,1332069
27.06.2011  12:00:00 PM   -0,1469920
27.06.2011  04:00:00 PM   -0,1596119
27.06.2011  08:00:00 PM   -0,1710478
28.06.2011  08:00:00 AM   -0,1980894
28.06.2011  12:00:00 PM   -0,2046359
28.06.2011  04:00:00 PM   -0,2099304
28.06.2011  08:00:00 PM   -0,2139643
29.06.2011  08:00:00 AM   -0,2184460
29.06.2011  12:00:00 PM   -0,2173896
29.06.2011  04:00:00 PM   -0,2150574
29.06.2011  08:00:00 PM   -0,2114517
30.06.2011  08:00:00 AM   -0,1930432
30.06.2011  12:00:00 PM   -0,1844020
30.06.2011  04:00:00 PM   -0,1745254
30.06.2011  08:00:00 PM   -0,1634263
01.07.2011  08:00:00 AM   -0,1229485
01.07.2011  12:00:00 PM   -0,1071225
01.07.2011  04:00:00 PM   -0,0901639
01.07.2011  08:00:00 PM   -0,0720957
04.07.2011  08:00:00 AM   0,3118715
04.07.2011  12:00:00 PM   0,3433738
04.07.2011  04:00:00 PM   0,3753804
04.07.2011  08:00:00 PM   0,4078454
05.07.2011  08:00:00 AM   0,5075201
05.07.2011  12:00:00 PM   0,5413444
05.07.2011  04:00:00 PM   0,5753866
05.07.2011  08:00:00 PM   0,6095966
06.07.2011  08:00:00 AM   0,7127272
06.07.2011  12:00:00 PM   0,7471003
06.07.2011  04:00:00 PM   0,7813853
06.07.2011  08:00:00 PM   0,8155305
07.07.2011  08:00:00 AM   0,9166057
07.07.2011  12:00:00 PM   0,9496705
07.07.2011  04:00:00 PM   0,9823353
07.07.2011  08:00:00 PM   1,0145483
08.07.2011  08:00:00 AM   1,1079648
08.07.2011  12:00:00 PM   1,1378606
08.07.2011  04:00:00 PM   1,1670515
08.07.2011  08:00:00 PM   1,1954884
11.07.2011  08:00:00 AM   1,5005776
11.07.2011  12:00:00 PM   1,5109592
11.07.2011  04:00:00 PM   1,5198943
11.07.2011  08:00:00 PM   1,5273536
12.07.2011  08:00:00 AM   1,5406064
12.07.2011  12:00:00 PM   1,5419003
12.07.2011  04:00:00 PM   1,5415957
12.07.2011  08:00:00 PM   1,5396729
13.07.2011  08:00:00 AM   1,5240269
13.07.2011  12:00:00 PM   1,5154718
13.07.2011  04:00:00 PM   1,5052278
13.07.2011  08:00:00 PM   1,4932862
14.07.2011  08:00:00 AM   1,4472179
14.07.2011  12:00:00 PM   1,4284375
14.07.2011  04:00:00 PM   1,4079448
14.07.2011  08:00:00 PM   1,3857427
15.07.2011  08:00:00 AM   1,3089375
15.07.2011  12:00:00 PM   1,2799650
15.07.2011  04:00:00 PM   1,2493264
15.07.2011  08:00:00 PM   1,2170362
18.07.2011  08:00:00 AM   0,5500712
18.07.2011  12:00:00 PM   0,4948383
18.07.2011  04:00:00 PM   0,4384782
18.07.2011  08:00:00 PM   0,3810366
19.07.2011  08:00:00 AM   0,2027002
19.07.2011  12:00:00 PM   0,1414167
19.07.2011  04:00:00 PM   0,0793002
19.07.2011  08:00:00 PM   0,0164041
20.07.2011  08:00:00 AM   -0,1764110
20.07.2011  12:00:00 PM   -0,2418697
20.07.2011  04:00:00 PM   -0,3078253
20.07.2011  08:00:00 PM   -0,3742186
21.07.2011  08:00:00 AM   -0,5754205
21.07.2011  12:00:00 PM   -0,6429573
21.07.2011  04:00:00 PM   -0,7106252
21.07.2011  08:00:00 PM   -0,7783613
22.07.2011  08:00:00 AM   -0,9813436
22.07.2011  12:00:00 PM   -1,0487161
22.07.2011  04:00:00 PM   -1,1158376
22.07.2011  08:00:00 PM   -1,1826439
25.07.2011  08:00:00 AM   -2,1038022
25.07.2011  12:00:00 PM   -2,1570357
25.07.2011  04:00:00 PM   -2,2089172
25.07.2011  08:00:00 PM   -2,2593927
26.07.2011  08:00:00 AM   -2,4018614
26.07.2011  12:00:00 PM   -2,4461974
26.07.2011  04:00:00 PM   -2,4888762
26.07.2011  08:00:00 PM   -2,5298516
27.07.2011  08:00:00 AM   -2,6421187
27.07.2011  12:00:00 PM   -2,6758497
27.07.2011  04:00:00 PM   -2,7076700
27.07.2011  08:00:00 PM   -2,7375431
28.07.2011  08:00:00 AM   -2,8151407
28.07.2011  12:00:00 PM   -2,8368959
28.07.2011  04:00:00 PM   -2,8565486
28.07.2011  08:00:00 PM   -2,8740734
29.07.2011  08:00:00 AM   -2,9136570
29.07.2011  12:00:00 PM   -2,9224566
29.07.2011  04:00:00 PM   -2,9290315
29.07.2011  08:00:00 PM   -2,9333686
01.08.2011  08:00:00 AM   -2,7274157
01.08.2011  12:00:00 PM   -2,6958906
01.08.2011  04:00:00 PM   -2,6622296
01.08.2011  08:00:00 PM   -2,6264576
02.08.2011  08:00:00 AM   -2,5067560
02.08.2011  12:00:00 PM   -2,4628301
02.08.2011  04:00:00 PM   -2,4169479
02.08.2011  08:00:00 PM   -2,3691463
03.08.2011  08:00:00 AM   -2,2146188
03.08.2011  12:00:00 PM   -2,1595425
03.08.2011  04:00:00 PM   -2,1027569
03.08.2011  08:00:00 PM   -2,0443093
04.08.2011  08:00:00 AM   -1,8594895
04.08.2011  12:00:00 PM   -1,7948963
04.08.2011  04:00:00 PM   -1,7288997
04.08.2011  08:00:00 PM   -1,6615555
05.08.2011  08:00:00 AM   -1,4520160
05.08.2011  12:00:00 PM   -1,3798657
05.08.2011  04:00:00 PM   -1,3066655
05.08.2011  08:00:00 PM   -1,2324782
08.08.2011  08:00:00 AM   -0,0461157
08.08.2011  12:00:00 PM   0,0347859
08.08.2011  04:00:00 PM   0,1155216
08.08.2011  08:00:00 PM   0,1960222
09.08.2011  08:00:00 AM   0,4354277
09.08.2011  12:00:00 PM   0,5143043
09.08.2011  04:00:00 PM   0,5926064
09.08.2011  08:00:00 PM   0,6702675
10.08.2011  08:00:00 AM   0,8987541
10.08.2011  12:00:00 PM   0,9732042
10.08.2011  04:00:00 PM   1,0466939
10.08.2011  08:00:00 PM   1,1191621
11.08.2011  08:00:00 AM   1,3298432
11.08.2011  12:00:00 PM   1,3976368
11.08.2011  04:00:00 PM   1,4641207
11.08.2011  08:00:00 PM   1,5292411
12.08.2011  08:00:00 AM   1,7159049
12.08.2011  12:00:00 PM   1,7750623
12.08.2011  04:00:00 PM   1,8326094
12.08.2011  08:00:00 PM   1,8885015
15.08.2011  08:00:00 AM   2,5034318
15.08.2011  12:00:00 PM   2,5282624
15.08.2011  04:00:00 PM   2,5509648
15.08.2011  08:00:00 PM   2,5715295
16.08.2011  08:00:00 AM   2,6203320
16.08.2011  12:00:00 PM   2,6322913
16.08.2011  04:00:00 PM   2,6420960
16.08.2011  08:00:00 PM   2,6497493
17.08.2011  08:00:00 AM   2,6598609
17.08.2011  12:00:00 PM   2,6589795
17.08.2011  04:00:00 PM   2,6559924
17.08.2011  08:00:00 PM   2,6509151
18.08.2011  08:00:00 AM   2,6233241
18.08.2011  12:00:00 PM   2,6100781
18.08.2011  04:00:00 PM   2,5948477
18.08.2011  08:00:00 PM   2,5776598
19.08.2011  08:00:00 AM   2,5146466
19.08.2011  12:00:00 PM   2,4899331
19.08.2011  04:00:00 PM   2,4634230
19.08.2011  08:00:00 PM   2,4351535
22.08.2011  08:00:00 AM   1,8297413
22.08.2011  12:00:00 PM   1,7795278
22.08.2011  04:00:00 PM   1,7283889
22.08.2011  08:00:00 PM   1,6763824
23.08.2011  08:00:00 AM   1,5157421
23.08.2011  12:00:00 PM   1,4608524
23.08.2011  04:00:00 PM   1,4053909
23.08.2011  08:00:00 PM   1,3494176
24.08.2011  08:00:00 AM   1,1790311
24.08.2011  12:00:00 PM   1,1216150
24.08.2011  04:00:00 PM   1,0639894
24.08.2011  08:00:00 PM   1,0062144
25.08.2011  08:00:00 AM   0,8325925
25.08.2011  12:00:00 PM   0,7748175
25.08.2011  04:00:00 PM   0,7171900
25.08.2011  08:00:00 PM   0,6597679
26.08.2011  08:00:00 AM   0,4893053
26.08.2011  12:00:00 PM   0,4332724
26.08.2011  04:00:00 PM   0,3777249
26.08.2011  08:00:00 PM   0,3227164
29.08.2011  08:00:00 AM   -0,4046628
29.08.2011  12:00:00 PM   -0,4446935
29.08.2011  04:00:00 PM   -0,4834602
29.08.2011  08:00:00 PM   -0,5209337
30.08.2011  08:00:00 AM   -0,6253273
30.08.2011  12:00:00 PM   -0,6573692
30.08.2011  04:00:00 PM   -0,6879976
30.08.2011  08:00:00 PM   -0,7171935
31.08.2011  08:00:00 AM   -0,7960276
31.08.2011  12:00:00 PM   -0,8193436
31.08.2011  04:00:00 PM   -0,8411613
31.08.2011  08:00:00 PM   -0,8614731
01.09.2011  08:00:00 AM   -0,9133249
01.09.2011  12:00:00 PM   -0,9275743
01.09.2011  04:00:00 PM   -0,9403077
01.09.2011  08:00:00 PM   -0,9515288
02.09.2011  08:00:00 AM   -0,9761815
02.09.2011  12:00:00 PM   -0,9814256
02.09.2011  04:00:00 PM   -0,9852027
02.09.2011  08:00:00 PM   -0,9875271
05.09.2011  08:00:00 AM   -0,8629240
05.09.2011  12:00:00 PM   -0,8452880
05.09.2011  04:00:00 PM   -0,8266838
05.09.2011  08:00:00 PM   -0,8071519
06.09.2011  08:00:00 AM   -0,7434085
06.09.2011  12:00:00 PM   -0,7205892
06.09.2011  04:00:00 PM   -0,6970585
06.09.2011  08:00:00 PM   -0,6728621
07.09.2011  08:00:00 AM   -0,5967462
07.09.2011  12:00:00 PM   -0,5703575
07.09.2011  04:00:00 PM   -0,5435411
07.09.2011  08:00:00 PM   -0,5163460
08.09.2011  08:00:00 AM   -0,4329838
08.09.2011  12:00:00 PM   -0,4047701
08.09.2011  04:00:00 PM   -0,3764267
08.09.2011  08:00:00 PM   -0,3480038
09.09.2011  08:00:00 AM   -0,2627575
09.09.2011  12:00:00 PM   -0,2345157
09.09.2011  04:00:00 PM   -0,2064430
09.09.2011  08:00:00 PM   -0,1785886
12.09.2011  08:00:00 AM   0,1814831
12.09.2011  12:00:00 PM   0,1996938
12.09.2011  04:00:00 PM   0,2169625
12.09.2011  08:00:00 PM   0,2332558
13.09.2011  08:00:00 AM   0,2759726
13.09.2011  12:00:00 PM   0,2880605
13.09.2011  04:00:00 PM   0,2990282
13.09.2011  08:00:00 PM   0,3088512
14.09.2011  08:00:00 AM   0,3312303
14.09.2011  12:00:00 PM   0,3362608
14.09.2011  04:00:00 PM   0,3400480
14.09.2011  08:00:00 PM   0,3425771
15.09.2011  08:00:00 AM   0,3424940
15.09.2011  12:00:00 PM   0,3398776
15.09.2011  04:00:00 PM   0,3359555
16.09.2011  08:00:00 AM   0,3071501
16.09.2011  12:00:00 PM   0,2966708
16.09.2011  04:00:00 PM   0,2848871
16.09.2011  08:00:00 PM   0,2718054
19.09.2011  08:00:00 AM   -0,0703395
19.09.2011  12:00:00 PM   -0,1018758
19.09.2011  04:00:00 PM   -0,1343368
19.09.2011  08:00:00 PM   -0,1676863
20.09.2011  08:00:00 AM   -0,2726853
20.09.2011  12:00:00 PM   -0,3092018
20.09.2011  04:00:00 PM   -0,3464070
20.09.2011  08:00:00 PM   -0,3842572
21.09.2011  08:00:00 AM   -0,5012268
21.09.2011  12:00:00 PM   -0,5412006
21.09.2011  04:00:00 PM   -0,5815863
21.09.2011  08:00:00 PM   -0,6223346
22.09.2011  08:00:00 AM   -0,7462503
22.09.2011  12:00:00 PM   -0,7879410
22.09.2011  04:00:00 PM   -0,8297372
22.09.2011  08:00:00 PM   -0,8715858
23.09.2011  08:00:00 AM   -0,9969095
23.09.2011  12:00:00 PM   -1,0384297
23.09.2011  04:00:00 PM   -1,0797319
23.09.2011  08:00:00 PM   -1,1207616
26.09.2011  08:00:00 AM   -1,6667800
26.09.2011  12:00:00 PM   -1,6961823
26.09.2011  04:00:00 PM   -1,7244292
26.09.2011  08:00:00 PM   -1,7514748
27.09.2011  08:00:00 AM   -1,8249639
27.09.2011  12:00:00 PM   -1,8467698
27.09.2011  04:00:00 PM   -1,8671630
27.09.2011  08:00:00 PM   -1,8861050
28.09.2011  08:00:00 AM   -1,9338591
28.09.2011  12:00:00 PM   -1,9466390
28.09.2011  04:00:00 PM   -1,9577966
28.09.2011  08:00:00 PM   -1,9673022
29.09.2011  08:00:00 AM   -1,9856359
29.09.2011  12:00:00 PM   -1,9882707
29.09.2011  04:00:00 PM   -1,9891308
29.09.2011  08:00:00 PM   -1,9881968
30.09.2011  08:00:00 AM   -1,9744648
30.09.2011  12:00:00 PM   -1,9661984
30.09.2011  04:00:00 PM   -1,9560694
30.09.2011  08:00:00 PM   -1,9440697
03.10.2011  08:00:00 AM   -1,5402439
03.10.2011  12:00:00 PM   -1,4988495
03.10.2011  04:00:00 PM   -1,4557527
03.10.2011  08:00:00 PM   -1,4109810
04.10.2011  08:00:00 AM   -1,2669203
04.10.2011  12:00:00 PM   -1,2157618
04.10.2011  04:00:00 PM   -1,1630936
04.10.2011  08:00:00 PM   -1,1089542
05.10.2011  08:00:00 AM   -0,9381174
05.10.2011  12:00:00 PM   -0,8785099
05.10.2011  04:00:00 PM   -0,8176475
05.10.2011  08:00:00 PM   -0,7555782
06.10.2011  08:00:00 AM   -0,5626288
06.10.2011  12:00:00 PM   -0,4962388
06.10.2011  04:00:00 PM   -0,4289021
06.10.2011  08:00:00 PM   -0,3606744
07.10.2011  08:00:00 AM   -0,1512204
07.10.2011  12:00:00 PM   -0,0800089
07.10.2011  04:00:00 PM   -0,0082015
07.10.2011  08:00:00 PM   0,0641402
10.10.2011  08:00:00 AM   1,1695257
10.10.2011  12:00:00 PM   1,2415739
10.10.2011  04:00:00 PM   1,3130397
10.10.2011  08:00:00 PM   1,3838574
11.10.2011  08:00:00 AM   1,5917704
11.10.2011  12:00:00 PM   1,6593471
11.10.2011  04:00:00 PM   1,7259543
11.10.2011  08:00:00 PM   1,7915299
12.10.2011  08:00:00 AM   1,9814564
12.10.2011  12:00:00 PM   2,0422998
12.10.2011  04:00:00 PM   2,1018137
12.10.2011  08:00:00 PM   2,1599416
13.10.2011  08:00:00 AM   2,3254632
13.10.2011  12:00:00 PM   2,3775073
13.10.2011  04:00:00 PM   2,4279022
13.10.2011  08:00:00 PM   2,4765993
14.10.2011  08:00:00 AM   2,6120419
14.10.2011  12:00:00 PM   2,6534937
14.10.2011  04:00:00 PM   2,6930289
14.10.2011  08:00:00 PM   2,7306086
17.10.2011  08:00:00 AM   3,0390522
17.10.2011  12:00:00 PM   3,0416311
17.10.2011  04:00:00 PM   3,0418942
17.10.2011  08:00:00 PM   3,0398391
18.10.2011  08:00:00 AM   3,0197732
18.10.2011  12:00:00 PM   3,0084650
18.10.2011  04:00:00 PM   2,9948593
18.10.2011  08:00:00 PM   2,9789669
19.10.2011  08:00:00 AM   2,9177071
19.10.2011  12:00:00 PM   2,8928165
19.10.2011  04:00:00 PM   2,8657242
19.10.2011  08:00:00 PM   2,8364535
20.10.2011  08:00:00 AM   2,7358340
20.10.2011  12:00:00 PM   2,6981228
20.10.2011  04:00:00 PM   2,6583795
20.10.2011  08:00:00 PM   2,6166394
21.10.2011  08:00:00 AM   2,4798158
21.10.2011  12:00:00 PM   2,4304754